Regional Weather Roundup
Issued by NWS State College, PA

Home | Current Version | Previous Version | Graphics & Text | Print | Product List | Glossary Off
Versions: 1 2 3 4 5 6 7 8 9 10 11 12 13 14 15 16 17 18 19 20 21 22 23 24 25 26 27 28 29 30 31 32 33 34 35 36 37 38 39 40 41 42 43 44 45 46 47 48 49 50

000
ASUS41 KCTP 170110
RWRCTP

REGIONAL WEATHER ROUNDUP
NATIONAL WEATHER SERVICE STATE COLLEGE PA
800 PM EST SAT DEC 16 2017

Note: "fair" indicates few or no clouds below 12,000 feet with no
significant weather and/or obstructions to visibility.

* = STATION THAT DOES NOT REPORT PRECIPITATION /E.G. RAIN...SNOW...ETC/
    THUNDER OR FOG.

PAZ002>004-007>009-013>016-020>023-029>032-170200-
WESTERN PENNSYLVANIA

CITY           SKY/WX    TMP DP  RH WIND       PRES   REMARKS
ERIE           CLOUDY    30  27  88 E5        30.14R
MEADVILLE      CLOUDY    30  30 100 N5        30.10R FOG
FRANKLIN*      CLOUDY    30  28  92 NE3       30.09R
NEW CASTLE     FAIR      27  26  96 CALM      30.11R
BEAVER COUNTY  NOT AVBL
BUTLER*        CLEAR     27  24  89 E5        30.11R
PITTSBURGH INT PTCLDY    36  26  67 CALM      30.11R
PITTSBURGH     CLEAR     37  23  56 SW6       30.11R
INDIANA*       CLOUDY    25  25 100 CALM      30.14R
LATROBE        CLEAR     27  25  93 CALM      30.13R
WASHINGTON CO* CLEAR     30  25  81 CALM      30.14R
$$

PAZ004>006-010>012-017>019-024>028-033>037-041-042-045-046-049>053-170200-
CENTRAL PENNSYLVANIA

CITY           SKY/WX    TMP DP  RH WIND       PRES   REMARKS
BRADFORD       CLOUDY    27  26  96 CALM      30.06R
DUBOIS         CLOUDY    31  25  78 W3        30.07R
CLEARFIELD     CLOUDY    34  27  75 SW5       30.09R
JOHNSTOWN      CLEAR     34  24  67 W13       30.06R
ALTOONA        CLEAR     37  25  61 CALM      30.10R
STATE COLLEGE  CLOUDY    36  27  69 SW6       30.11R
WILLIAMSPORT   CLOUDY    37  28  70 N5        30.13R
SELINSGROVE    CLOUDY    38  28  67 CALM      30.14R
FT INDIANTOWN  CLOUDY    41  27  58 W7        30.13R
CAPITAL CITY   CLOUDY    38  26  62 CALM      30.13R
HARRISBURG     MOCLDY    34  27  75 CALM      30.13R
YORK           CLEAR     29  23  78 CALM      30.13R
$$

PAZ038>040-043-044-047-048-054-055-060>062-067>071-170200-
EASTERN PENNSYLVANIA

CITY           SKY/WX    TMP DP  RH WIND       PRES   REMARKS
SCRANTON       CLOUDY    30  24  78 N9        30.12R
MOUNT POCONO   CLOUDY    26  22  84 NW8       30.05R
ALLENTOWN      CLOUDY    38  26  62 W6        30.12R
QUAKERTOWN*    CLOUDY    37  25  60 W3        30.13R
READING        CLOUDY    37  29  72 NW3       30.13R
LANCASTER      CLOUDY    37  27  67 CALM      30.14R
COATESVILLE    CLOUDY    37  25  60 W6        30.14R
POTTSTOWN      CLOUDY    36  25  64 CALM      30.15R
BLUE BELL      CLOUDY    36  27  69 W3        30.16R
DOYLESTOWN     CLOUDY    37  24  59 CALM      30.12R
WILLOW GROVE   NOT AVBL
NORTH PHILA    CLOUDY    40  27  59 W6        30.16R
PHILADELPHIA   MOCLDY    39  26  59 SW12      30.15R
$$




USA.gov is the U.S. government's official web portal to all federal, state and local government web resources and services.